FW4191 Weather Reports


Display with metric or nautical units.
time (UTC)temp
F
wind
direction
speed
MPH
gust
MPH
rain 1hr
in
rain 24hr
in
rain mn
in
humidity
%
barometer
mb
20260508203515 66 225 0.0 1.0 0.00 0.00 0.00 47 1074.6
20260508202516 66 197 1.0 2.0 0.00 0.00 0.00 47 1074.4
20260508201518 66 195 0.0 0.0 0.00 0.00 0.00 47 1074.6
20260508201416 66 211 0.0 1.0 0.00 0.00 0.00 47 1074.6
20260508195418 67 225 0.0 0.0 0.00 0.00 0.00 39 1074.8
20260508193418 70 204 1.0 3.0 0.00 0.00 0.00 39 1074.8
20260508192516 72 214 2.0 4.0 0.00 0.00 0.00 40 1074.9
20260508191516 71 314 1.0 2.0 0.00 0.00 0.00 43 1074.9
20260508191417 71 336 1.0 2.0 0.00 0.00 0.00 42 1074.9
20260508190515 70 210 3.0 8.0 0.00 0.00 0.00 40 1075.1
20260508185517 71 257 1.0 4.0 0.00 0.00 0.00 40 1075.5
20260508184416 71 241 4.0 8.0 0.00 0.00 0.00 40 1075.8
20260508183418 71 22 1.0 4.0 0.00 0.00 0.00 43 1075.7
20260508182515 70 331 0.0 4.0 0.00 0.00 0.00 44 1075.8
20260508174534 66 266 1.0 3.0 0.00 0.02 0.00 44 1076.6
20260508173631 67 283 0.0 1.0 0.00 0.02 0.00 45 1076.8
20260508171733 68 84 0.0 3.0 0.00 0.02 0.00 44 1077.0
20260508171615 68 129 0.0 1.0 0.00 0.02 0.00 44 1077.0
20260508170617 68 194 2.0 6.0 0.00 0.02 0.00 44 1077.2
20260508165716 68 286 0.0 4.0 0.00 0.02 0.00 44 1077.5
20260508164815 68 253 1.0 6.0 0.00 0.02 0.00 45 1077.6
20260508164719 68 314 0.0 2.0 0.00 0.02 0.00 45 1077.7
20260508163817 67 222 0.0 2.0 0.00 0.02 0.00 44 1077.7
20260508163716 67 252 1.0 4.0 0.00 0.02 0.00 45 1077.6
20260508162733 68 231 3.0 8.0 0.00 0.02 0.00 46 1077.8
20260508161815 67 231 1.0 3.0 0.00 0.02 0.00 45 1077.9
20260508160830 67 191 1.0 2.0 0.00 0.02 0.00 45 1078.0
20260508155818 67 277 2.0 4.0 0.00 0.02 0.00 47 1078.3
20260508154816 67 229 1.0 4.0 0.00 0.02 0.00 47 1078.3
20260508152918 66 309 0.0 4.0 0.00 0.02 0.00 49 1078.5
20260508151917 66 266 2.0 4.0 0.00 0.02 0.00 50 1078.5
20260508151015 64 215 1.0 3.0 0.00 0.02 0.00 48 1078.6
20260508150114 63 271 2.0 6.0 0.00 0.02 0.00 48 1078.7
20260508145133 63 253 4.0 8.0 0.00 0.02 0.00 47 1078.6
20260508144214 63 237 1.0 5.0 0.00 0.02 0.00 48 1078.7
20260508143231 62 266 2.0 6.0 0.00 0.02 0.00 51 1078.9
20260508142217 62 258 0.0 3.0 0.00 0.02 0.00 51 1079.0
20260508141217 61 223 4.0 7.0 0.00 0.02 0.00 54 1079.3
20260508141132 61 15 1.0 4.0 0.00 0.02 0.00 54 1079.3
20260508140116 60 204 2.0 5.0 0.00 0.02 0.00 56 1079.2
20260508135116 59 308 0.0 2.0 0.00 0.02 0.00 58 1079.3
20260508134117 58 157 0.0 1.0 0.00 0.02 0.00 62 1079.3
20260508133215 57 210 2.0 3.0 0.00 0.02 0.00 65 1079.3
20260508131218 56 234 2.0 4.0 0.00 0.02 0.00 71 1079.4
20260508130316 55 273 1.0 3.0 0.00 0.02 0.00 77 1079.2
20260508125315 53 201 1.0 2.0 0.00 0.02 0.00 83 1079.3
20260508124315 51 222 2.0 3.0 0.00 0.02 0.00 91 1079.3
20260508124232 51 166 0.0 1.0 0.00 0.02 0.00 90 1079.3
20260508123216 49 180 0.0 1.0 0.00 0.02 0.00 93 1079.3
20260508123116 49 180 0.0 0.0 0.00 0.02 0.00 93 1079.3
20260508122117 47 168 0.0 1.0 0.00 0.02 0.00 94 1079.1
20260508122016 47 180 0.0 0.0 0.00 0.02 0.00 94 1079.2
20260508121917 47 194 0.0 0.0 0.00 0.02 0.00 94 1079.2
20260508121015 45 337 0.0 0.0 0.00 0.02 0.00 93 1079.1
20260508120914 45 337 0.0 0.0 0.00 0.02 0.00 93 1079.1
20260508114917 42 225 0.0 0.0 0.00 0.02 0.00 94 1078.6
20260508113916 42 225 0.0 0.0 0.00 0.02 0.00 94 1078.5
20260508112918 41 225 0.0 0.0 0.00 0.02 0.00 94 1078.5
20260508112819 41 225 0.0 0.0 0.00 0.02 0.00 94 1078.5
20260508111817 41 225 0.0 0.0 0.00 0.02 0.00 93 1078.3
20260508105814 40 225 0.0 0.0 0.00 0.02 0.00 94 1078.0
20260508104816 40 225 0.0 0.0 0.00 0.02 0.00 94 1078.0
20260508103716 40 225 0.0 0.0 0.00 0.02 0.00 94 1078.1
20260508103617 40 225 0.0 0.0 0.00 0.02 0.00 94 1078.2
20260508102616 40 225 0.0 0.0 0.00 0.02 0.00 93 1078.0
20260508102516 40 225 0.0 0.0 0.00 0.02 0.00 93 1078.0
20260508101614 39 225 0.0 0.0 0.00 0.02 0.00 94 1078.2
20260508100632 39 225 0.0 0.0 0.00 0.02 0.00 93 1078.0
20260508095631 39 225 0.0 0.0 0.00 0.02 0.00 94 1078.0
20260508092615 39 225 0.0 0.0 0.00 0.02 0.00 94 1078.2
20260508091615 39 225 0.0 0.0 0.00 0.02 0.00 94 1078.1
20260508090616 39 225 0.0 0.0 0.00 0.02 0.00 93 1078.2
20260508085615 38 225 0.0 0.0 0.00 0.02 0.00 92 1078.0
20260508083714 37 225 0.0 0.0 0.00 0.02 0.00 92 1078.0
20260508082715 37 225 0.0 0.0 0.00 0.02 0.00 92 1077.9
20260508081717 37 225 0.0 0.0 0.00 0.02 0.00 93 1077.8
20260508080732 37 225 0.0 0.0 0.00 0.02 0.00 92 1077.8
20260508075831 37 225 0.0 0.0 0.00 0.02 0.00 93 1077.8
20260508074817 37 225 0.0 0.0 0.00 0.02 0.00 93 1077.8
20260508073816 37 225 0.0 0.0 0.00 0.02 0.00 93 1077.8
20260508072817 37 225 0.0 0.0 0.00 0.02 0.00 93 1077.8
20260508071914 37 225 0.0 0.0 0.00 0.02 0.00 92 1078.0
20260508070930 37 225 0.0 0.0 0.00 0.02 0.00 92 1078.0
20260508070014 37 225 0.0 0.0 0.00 0.02 0.00 91 1077.9
20260508065016 38 225 0.0 0.0 0.00 0.02 0.00 91 1078.0
20260508064017 38 225 0.0 0.0 0.00 0.02 0.00 92 1078.3
20260508063116 38 225 0.0 0.0 0.00 0.02 0.00 92 1078.5
20260508062113 39 225 0.0 0.0 0.00 0.02 0.00 91 1078.6
20260508062015 39 225 0.0 0.0 0.00 0.02 0.00 92 1078.7
20260508060931 38 225 0.0 0.0 0.00 0.02 0.00 91 1078.6
20260508054115 39 225 0.0 0.0 0.00 0.02 0.00 90 1078.6
20260508053117 39 225 0.0 0.0 0.00 0.02 0.00 91 1078.5
20260508052117 39 225 0.0 0.0 0.00 0.02 0.00 91 1078.4
20260508051116 39 225 0.0 0.0 0.00 0.02 0.00 91 1078.5
20260508051018 39 225 0.0 0.0 0.00 0.02 0.00 91 1078.4
20260508050016 39 225 0.0 0.0 0.00 0.02 0.00 91 1078.6
20260508044917 40 225 0.0 0.0 0.00 0.02 0.00 90 1078.6
20260508042915 40 225 0.0 0.0 0.00 0.02 0.00 89 1078.4
20260508035126 40 225 0.0 0.0 0.00 0.02 0.02 86 1078.3
20260508035042 40 225 0.0 0.0 0.00 0.02 0.02 86 1078.4
20260508034026 41 225 0.0 0.0 0.00 0.02 0.02 83 1078.4
20260508033026 41 225 0.0 0.0 0.00 0.02 0.02 84 1078.4
20260508032943 41 225 0.0 0.0 0.00 0.02 0.02 83 1078.4
20260508031028 42 225 0.0 0.0 0.00 0.02 0.02 81 1078.5
20260508030027 42 180 0.0 0.0 0.00 0.02 0.02 79 1078.0
20260508025926 42 180 0.0 1.0 0.00 0.02 0.02 80 1078.1
20260508024943 42 225 0.0 0.0 0.00 0.02 0.02 80 1078.5
20260508024826 42 225 0.0 0.0 0.00 0.02 0.02 79 1078.6
20260508024728 43 225 0.0 0.0 0.00 0.02 0.02 80 1078.5
20260508023627 43 225 0.0 1.0 0.00 0.02 0.02 79 1078.5
20260508022725 43 225 0.0 0.0 0.00 0.02 0.02 76 1078.5
20260508021726 43 225 0.0 0.0 0.00 0.02 0.02 74 1078.5
20260508020743 44 225 0.0 0.0 0.00 0.02 0.02 74 1078.5
20260508015826 44 225 0.0 0.0 0.00 0.02 0.02 72 1078.2
20260508014830 44 225 0.0 0.0 0.00 0.02 0.02 69 1078.5
20260508013828 45 225 0.0 0.0 0.00 0.02 0.02 67 1078.4
20260508013728 45 225 0.0 0.0 0.00 0.02 0.02 66 1078.4
20260508012743 46 202 0.0 0.0 0.00 0.02 0.02 63 1078.5
20260508011729 47 202 0.0 0.0 0.00 0.02 0.02 60 1078.5
20260508005727 50 202 0.0 0.0 0.00 0.02 0.02 55 1078.4
20260508005628 50 202 0.0 0.0 0.00 0.02 0.02 55 1078.5
20260508004627 51 202 0.0 1.0 0.00 0.02 0.02 53 1078.5
20260508002628 53 202 0.0 1.0 0.00 0.02 0.02 51 1078.4
20260508001644 53 202 0.0 0.0 0.00 0.02 0.02 50 1078.3
20260508001542 53 202 0.0 1.0 0.00 0.02 0.02 50 1078.4
20260507235627 55 223 1.0 3.0 0.00 0.02 0.02 48 1078.3
20260507233725 56 247 1.0 2.0 0.00 0.02 0.02 49 1078.3
20260507232729 57 225 0.0 0.0 0.00 0.02 0.02 46 1078.2
20260507231744 59 221 0.0 1.0 0.00 0.02 0.02 43 1078.0
20260507225725 64 67 0.0 0.0 0.00 0.02 0.02 38 1078.4
20260507222825 61 62 0.0 3.0 0.00 0.02 0.02 43 1078.2
20260507220827 61 157 0.0 0.0 0.00 0.02 0.02 45 1078.4
20260507214827 62 180 0.0 0.0 0.00 0.02 0.02 41 1078.6
20260507212828 64 60 0.0 1.0 0.00 0.02 0.02 37 1078.5
20260507212726 65 24 1.0 4.0 0.00 0.02 0.02 38 1078.5
20260507211742 63 45 0.0 2.0 0.00 0.02 0.02 41 1078.6
20260507210726 62 307 1.0 2.0 0.00 0.02 0.02 38 1078.5